RH
4 4 4 4 4 4 4 4 4 4 4 4 5 5 5 5 5 5 5 5 5 5 5 5 5 5 5 5 5 5 5 5 5 5 5 4 4 4 4 4 4 4 4 4 4 4 4 4 4 4 4 4 3 3 3 3 3 3 3 3 3 3 3 3 3 3 3 3 3 3 3 3 3 3 3 3 3 3 3 3 3 3 3 3 3 3 3 3 3 3 3 3 3 3 3 3 3 3 3 3 3 3 3
4 4 4 4 4 4 5 5 5 5 5 5 5 5 5 6 6 6 6 6 6 6 6 6 6 6 6 6 6 6 6 6 6 6 5 5 5 5 5 5 5 5 5 5 5 5 5 5 5 5 5 5 5 4 4 4 4 4 4 4 4 4 4 4 4 4 4 4 4 4 4 4 4 4 4 4 4 4 4 4 4 4 4 4 4 4 4 4 4 4 4 4 4 4 4 4 4 4 4 4 4 4 4
5 5 5 5 5 5 5 5 5 5 5 5 6 6 6 6 6 6 6 6 6 6 6 6 6 6 6 6 6 6 6 6 6 6 6 6 6 6 6 6 6 6 6 6 6 6 6 6 6 6 6 6 6 5 5 5 5 5 5 5 5 5 5 5 5 5 5 5 5 5 5 5 5 5 5 5 5 5 5 5 5 5 5 5 5 5 5 5 5 5 5 5 5 5 5 5 5 5 5 5 5 5 5
5 5 5 5 5 5 5 5 6 6 6 6 6 6 6 6 6 6 6 6 6 6 6 6 6 5 5 5 5 6 6 6 6 6 6 6 6 6 6 6 6 6 6 6 6 6 6 6 6 6 6 6 6 6 6 6 6 6 6 6 6 6 6 6 6 6 6 6 6 6 6 6 6 6 6 6 6 6 6 6 6 6 6 6 6 6 6 6 6 6 6 6 6 6 6 6 6 6 6 6 6 6 6
5 6 6 6 6 6 6 6 6 6 6 5 5 5 5 5 5 5 5 5 5 5 5 5 5 5 5 5 5 5 5 5 5 5 5 5 5 5 5 5 5 5 5 6 6 6 6 6 6 6 6 6 6 6 6 6 6 6 6 6 6 6 6 6 6 6 6 6 6 6 6 6 6 6 6 6 6 6 6 6 6 6 6 6 7 7 7 7 7 7 7 7 7 7 7 6 6 6 6 6 6 6 6
6 6 6 6 6 6 6 6 6 5 5 5 5 5 5 5 5 5 5 5 5 5 5 5 5 5 5 5 4 4 4 4 4 4 4 4 4 4 4 4 5 5 5 5 5 5 5 5 5 5 5 5 6 6 6 6 6 6 6 6 6 6 6 6 6 6 6 6 6 6 6 6 6 6 6 6 6 6 6 6 6 6 6 6 6 6 7 7 7 7 7 7 7 7 7 7 7 7 7 7 7 7 7
6 6 6 6 6 6 6 6 6 5 5 5 5 5 5 5 5 5 5 5 5 5 5 5 5 5 5 5 4 4 4 4 4 4 4 4 4 4 4 4 4 4 4 4 4 4 5 5 5 5 5 5 5 5 5 5 5 5 5 5 5 5 5 5 6 6 6 6 6 6 6 6 6 6 6 6 6 6 6 6 6 6 6 6 6 6 6 6 6 6 6 6 7 7 7 7 7 7 7 7 7 7 7
5 6 6 6 6 6 6 6 6 6 6 6 6 6 5 5 5 5 5 5 5 5 5 5 5 5 5 5 5 5 4 4 4 4 4 4 4 4 4 4 4 4 4 4 4 4 4 4 4 4 4 5 5 5 5 5 5 5 5 5 5 5 5 5 5 5 5 5 5 5 5 5 5 5 5 5 5 5 5 6 6 6 6 6 6 6 6 6 6 6 6 6 6 6 6 6 6 7 7 7 7 7 7
5 5 6 6 6 6 6 6 6 6 6 6 6 6 6 6 6 6 6 6 6 5 5 5 5 5 5 5 5 5 5 5 5 5 5 4 4 4 4 4 4 4 4 4 4 4 4 4 4 5 5 5 5 5 5 5 5 5 5 5 5 5 5 5 5 5 5 5 5 5 5 5 5 5 5 5 5 5 5 5 5 5 6 6 6 6 6 6 6 6 6 6 6 6 6 6 6 6 7 7 7 7 7
5 5 5 5 5 5 6 6 6 6 6 6 6 6 6 6 6 6 6 6 6 6 6 6 6 6 5 5 5 5 5 5 5 5 5 5 5 5 5 5 5 5 5 5 5 5 5 5 5 5 5 5 5 5 5 5 5 5 5 5 5 5 5 5 5 5 5 5 5 5 5 5 5 6 6 6 6 6 6 6 5 6 6 6 6 6 6 6 6 6 6 6 6 6 6 6 6 6 7 7 7 7 7
5 5 5 5 5 5 5 5 5 6 6 6 6 6 6 6 6 6 6 6 6 6 6 6 6 6 6 6 6 6 6 5 5 5 5 5 5 5 5 5 5 5 5 5 5 5 5 5 5 5 5 5 5 5 5 5 5 5 5 5 5 5 5 5 5 5 5 6 6 6 6 6 6 6 6 6 6 6 6 6 6 6 6 6 6 6 6 6 6 6 6 6 6 6 6 6 6 7 7 7 7 7 7
5 5 5 5 5 5 5 5 5 5 5 5 5 6 6 6 6 6 6 6 6 6 6 6 6 6 6 6 6 6 6 6 6 6 6 6 6 5 5 5 5 5 5 5 5 5 5 5 5 5 5 5 5 5 5 5 5 5 5 5 6 6 6 6 6 6 6 6 6 6 6 6 6 6 6 6 6 6 6 6 6 6 6 6 6 6 6 6 6 6 6 6 6 6 6 6 7 7 7 7 7 7 7
5 5 5 5 5 5 5 5 5 5 5 5 5 5 5 5 6 6 6 6 6 6 6 6 6 6 6 6 6 6 6 6 6 6 6 6 6 6 6 6 6 6 6 6 5 5 5 5 5 6 6 6 6 6 6 6 6 6 6 6 6 6 6 6 6 6 6 6 6 6 6 6 6 6 6 7 7 7 7 7 7 7 6 6 6 6 6 6 6 6 6 6 6 7 7 7 7 7 7 7 7 7 7
5 5 5 5 5 5 5 5 5 5 5 5 5 5 5 5 5 5 6 6 6 6 6 6 6 6 6 6 6 6 6 6 6 6 6 6 6 6 6 6 6 6 6 6 6 6 6 6 6 6 6 6 6 6 6 6 6 6 6 6 6 6 6 6 6 6 7 7 7 7 7 7 7 7 7 7 7 7 7 7 7 7 7 7 7 7 7 7 7 7 7 7 7 7 7 7 7 7 7 7 7 7 7
5 5 5 5 5 5 5 5 5 5 5 5 5 5 5 5 5 5 6 6 6 6 6 6 6 6 6 6 6 6 6 6 6 6 6 6 6 6 6 6 6 6 6 6 6 6 6 6 6 6 6 6 6 6 6 6 6 6 6 6 7 7 7 7 7 7 7 7 7 7 7 7 7 7 7 7 7 7 7 7 7 7 7 7 7 7 7 7 7 7 7 7 7 7 7 7 7 7 7 7 7 7 7
5 5 5 5 5 5 5 5 5 5 5 5 5 5 5 5 5 6 6 6 6 6 6 6 6 6 6 6 6 6 6 6 6 6 6 6 6 7 7 7 7 7 7 7 7 7 7 7 7 7 7 7 7 7 7 7 7 7 7 7 7 7 7 7 7 7 7 7 7 7 7 7 7 7 7 8 8 8 8 8 8 8 8 8 8 8 8 8 8 8 8 8 8 8 8 8 8 8 8 8 8 8 8
5 5 5 5 5 5 5 5 5 5 5 6 6 6 6 6 6 6 6 6 6 6 6 6 6 6 6 6 6 6 6 6 6 6 7 7 7 7 7 7 7 7 7 7 7 7 7 7 7 7 7 7 7 7 7 7 7 7 7 7 7 7 7 7 7 7 7 7 7 7 7 8 8 8 8 8 8 8 8 8 8 8 8 8 8 8 8 8 8 8 8 8 8 8 8 8 8 8 8 8 8 8 8
5 5 5 5 5 5 5 5 5 5 5 5 5 6 6 6 6 6 6 6 6 6 6 6 6 6 6 6 6 6 6 6 6 7 7 7 7 7 7 7 7 7 7 7 7 7 7 7 7 7 7 7 7 7 7 7 7 7 7 7 7 7 7 7 7 7 7 8 8 8 8 8 8 8 8 8 8 8 8 8 8 8 8 9 9 9 9 9 9 9 9 9 9 9 9 9 9 9 9 9 9 9 9
5 5 5 5 5 5 5 5 5 5 5 5 5 5 5 5 6 6 6 6 6 6 6 6 6 6 6 6 7 7 7 7 7 7 7 7 7 7 7 7 7 7 7 7 7 7 7 7 7 7 7 8 8 8 8 8 8 8 8 8 8 8 8 8 8 8 8 8 8 8 8 8 8 8 8 8 8 8 8 9 9 9 9 9 9 9 9 9 9 9 9 9 9 9 9 9 9 9 9 9 9 9 9
6 6 6 6 6 6 6 6 6 6 6 6 6 6 6 6 6 6 6 6 6 6 6 6 6 6 6 6 7 7 7 7 7 7 7 7 7 7 7 7 7 7 7 7 7 7 7 7 8 8 8 8 8 8 8 8 8 8 8 8 8 8 8 8 8 8 8 8 8 8 8 8 8 8 8 8 8 8 9 9 9 9 9 9 9 9 9 9 10 10 10 10 10 10 10 10 10 10 10 10 10 10 10
7 7 7 7 7 7 7 7 7 7 7 7 7 7 7 7 6 6 6 6 6 6 6 6 6 6 6 6 6 7 7 7 7 7 7 7 7 7 7 7 7 8 8 8 8 8 8 8 8 8 8 8 8 8 8 8 8 8 8 9 9 9 9 9 9 9 9 9 9 9 9 9 9 9 9 9 9 9 9 9 9 9 9 9 9 9 10 10 10 10 10 10 10 10 10 10 10 10 10 10 10 10 10
7 7 7 7 7 7 7 7 7 7 7 7 7 7 7 7 7 7 7 7 7 7 7 7 7 7 7 7 7 7 7 7 7 7 7 7 7 7 7 7 7 7 8 8 8 8 8 8 8 8 8 8 8 8 8 9 9 9 9 9 9 9 9 9 9 9 9 9 9 9 9 9 9 9 9 9 9 9 9 9 9 9 9 9 9 10 10 10 10 10 10 10 10 10 10 10 10 10 10 10 10 10 10
7 7 7 7 7 7 7 7 7 7 7 7 7 7 7 7 8 8 8 8 8 8 8 8 8 8 8 8 8 8 8 8 8 8 8 8 8 8 8 8 8 8 8 8 8 8 8 8 8 8 8 8 8 8 9 9 9 9 9 9 9 9 9 10 10 10 10 10 10 10 10 10 10 10 10 10 10 10 10 10 10 10 10 10 10 10 10 10 10 10 10 10 10 10 10 10 10 11 11 11 11 11 11
10 10 9 9 9 9 9 9 9 8 8 8 8 8 8 8 8 8 8 8 8 8 8 8 8 8 9 9 9 9 9 9 9 9 9 9 9 9 9 9 9 9 9 9 9 9 9 9 9 9 9 9 9 9 9 9 9 9 9 9 9 9 9 10 10 10 10 10 10 10 10 10 10 10 10 11 11 11 11 11 11 11 10 11 11 11 11 11 11 11 11 11 11 11 11 11 11 11 11 11 11 11 11
13 13 13 13 13 12 12 12 12 12 11 11 11 11 10 10 10 10 10 10 9 9 9 9 9 9 9 9 9 9 9 9 9 9 10 10 10 10 10 10 10 10 10 10 10 10 10 10 10 10 10 9 9 9 9 9 9 9 9 9 10 10 10 10 10 10 10 10 10 10 10 10 11 11 11 11 11 11 11 11 11 11 11 11 11 11 11 11 11 11 11 11 11 11 11 11 11 11 11 11 12 12 12
17 17 17 17 17 16 16 16 16 16 16 15 15 15 14 14 14 13 13 13 13 12 12 12 11 11 11 11 10 10 10 10 10 10 10 10 10 10 10 10 10 10 11 11 11 11 11 11 10 10 10 10 10 10 10 10 10 10 10 10 10 10 10 10 10 10 10 10 10 10 10 11 11 11 11 11 11 11 11 12 12 12 12 12 12 12 12 12 12 12 12 12 12 12 12 12 12 12 12 12 12 12 12
20 20 19 19 19 19 19 19 19 19 19 19 18 18 18 18 17 17 17 17 16 16 16 15 15 15 14 14 14 13 13 13 13 12 12 12 12 12 12 12 12 12 12 12 12 12 12 12 12 12 12 11 11 11 11 11 11 11 11 11 11 11 11 11 11 11 11 11 11 11 11 11 11 11 11 11 11 11 12 12 12 12 12 12 12 12 12 12 12 12 12 12 12 12 12 13 13 13 13 13 13 13 13
21 21 21 21 21 21 21 21 21 21 21 21 21 21 20 20 20 20 20 20 20 19 19 19 19 18 18 18 18 17 17 17 16 16 16 16 15 15 15 15 14 14 14 14 14 14 14 14 14 13 13 13 13 13 13 13 13 12 12 12 12 12 12 12 12 12 11 11 11 11 11 11 11 11 11 11 11 11 12 12 12 12 12 12 12 12 12 12 12 12 13 13 13 13 13 13 13 13 13 13 13 13 13
22 22 22 22 22 22 22 22 22 22 22 22 22 22 22 22 22 22 22 22 22 22 22 21 21 21 21 21 21 20 20 20 20 20 19 19 19 19 18 18 18 18 18 17 17 17 17 16 16 16 16 16 16 16 15 15 15 15 15 14 14 14 14 13 13 13 13 13 12 12 12 12 12 12 12 12 12 12 12 12 12 12 12 12 12 12 12 12 13 13 13 13 13 13 13 13 13 13 13 13 13 13 13
21 21 22 22 22 22 22 22 22 22 22 22 22 22 22 22 22 22 23 23 23 23 23 23 23 23 23 23 23 23 23 23 22 22 22 22 22 22 22 22 21 21 21 21 21 20 20 20 20 19 19 19 19 18 18 18 18 18 18 17 17 17 16 16 16 15 15 15 14 14 14 14 13 13 13 13 13 12 12 12 12 12 12 12 12 12 12 12 12 13 13 13 13 13 13 13 13 13 13 13 13 13 13
20 20 20 20 20 20 21 21 21 21 21 21 21 21 21 21 21 22 22 22 23 23 23 24 24 24 24 24 24 25 25 25 25 25 24 24 24 24 24 24 24 24 24 24 24 24 23 23 23 23 22 22 22 22 22 22 21 21 21 21 20 20 20 19 19 19 18 18 18 17 17 17 16 16 16 15 15 15 14 14 14 14 14 13 13 13 13 13 13 13 13 13 13 13 13 13 13 13 13 13 13 13 13
19 19 19 18 18 18 18 18 18 18 18 19 19 19 19 19 19 20 20 21 21 22 22 23 23 24 24 25 25 26 26 26 26 26 26 26 26 27 27 27 27 27 27 27 27 27 26 26 26 26 26 26 26 26 26 25 25 25 25 25 25 24 24 24 24 24 23 23 23 22 22 22 22 21 21 20 20 20 20 19 19 19 19 19 18 18 18 18 18 18 17 17 17 17 17 17 17 16 16 16 16 16 16
17 17 17 17 17 17 17 17 17 17 17 17 17 17 17 17 18 18 19 19 20 20 21 22 22 23 23 24 25 25 26 26 27 27 27 27 28 28 28 28 29 29 29 29 29 29 29 29 29 29 29 29 29 29 29 29 29 29 29 29 28 28 28 28 28 28 28 28 28 28 28 27 27 27 27 27 26 26 26 26 26 25 25 25 25 24 24 24 24 23 23 23 23 22 22 22 22 21 21 21 21 20 20
16 16 15 15 15 15 15 15 15 15 15 15 15 16 16 16 16 17 17 18 18 19 19 20 21 22 22 23 23 24 24 25 26 26 27 27 27 28 28 29 29 29 29 30 30 30 30 30 30 30 30 30 30 30 30 30 30 30 29 29 29 29 29 29 28 28 28 28 27 27 27 26 26 26 26 25 25 24 24 24 24 24 23 23 23 23 23 23 23 23 22 22 22 22 22 22 21 21 21 21 21 21 21
14 14 14 13 13 13 13 13 13 13 13 13 14 14 14 15 15 16 16 17 17 18 18 19 20 20 21 21 22 22 23 23 24 25 26 26 26 26 27 27 27 28 28 28 28 28 28 28 28 28 28 28 27 27 27 27 26 26 26 25 25 24 23 22 22 21 20 19 19 18 18 17 17 16 16 15 15 15 15 14 14 14 14 14 14 14 15 15 15 15 15 15 15 15 15 15 15 16 16 16 16 16 16
12 12 12 12 12 11 11 11 11 11 12 12 12 12 13 13 14 15 15 16 17 17 18 18 19 20 20 21 21 21 22 22 23 23 24 24 24 24 25 25 25 25 25 25 26 26 25 25 25 24 24 23 23 22 22 21 20 19 18 17 17 16 15 14 13 12 11 11 10 10 10 10 10 9 9 9 9 9 9 9 9 9 9 9 9 9 10 10 10 10 10 10 10 10 10 10 10 11 11 11 11 11 11
11 11 10 10 10 10 10 10 10 10 10 10 10 11 11 12 13 13 14 15 16 17 17 18 18 19 19 20 20 20 20 20 21 21 21 22 22 22 22 22 22 22 22 22 22 21 21 20 20 19 18 17 16 16 15 14 13 12 11 11 10 10 9 9 9 9 9 9 9 9 9 9 9 9 10 10 10 10 10 10 10 10 10 10 10 10 10 10 10 10 10 10 10 10 10 10 10 10 10 10 10 10 10
9 9 9 9 9 9 8 8 8 8 9 9 9 9 10 11 11 12 13 14 15 15 16 17 17 17 18 18 18 18 18 18 19 19 19 19 19 19 19 19 19 18 18 18 17 16 15 15 14 13 12 12 11 10 10 10 9 9 9 9 9 9 9 10 10 10 10 10 10 10 10 10 10 10 10 10 10 10 10 10 10 10 10 10 10 10 10 10 10 10 10 10 10 10 11 11 11 11 11 11 11 11 11
8 8 8 8 8 8 7 7 8 8 8 8 8 9 9 10 10 11 12 13 13 14 14 15 16 16 16 16 16 16 16 17 17 17 17 17 17 17 16 15 15 14 14 13 12 12 11 10 10 10 9 9 9 9 9 9 10 10 10 10 10 10 10 10 10 10 10 9 9 9 9 8 8 8 8 8 8 8 8 8 8 8 8 8 8 8 8 8 8 8 8 9 9 9 9 9 10 10 10 11 11 11 12
7 7 7 7 7 7 7 7 7 8 8 8 8 9 9 10 10 11 11 12 12 13 13 14 15 15 15 15 15 15 15 15 15 15 15 15 14 14 13 12 11 11 10 10 10 9 9 9 9 9 9 10 10 10 10 10 10 10 10 10 10 10 9 9 9 8 8 8 7 7 7 7 7 6 6 6 6 6 6 6 6 6 6 6 6 6 6 6 6 6 6 6 6 7 7 7 8 8 8 9 9 10 10
7 7 7 7 7 7 7 8 8 8 8 9 9 10 10 10 11 11 12 12 12 13 13 13 14 14 14 14 14 14 14 13 13 13 13 12 11 11 10 10 9 9 9 9 9 9 9 10 10 10 10 10 10 10 10 10 10 10 9 9 9 8 8 7 7 7 6 6 6 6 6 6 5 5 5 5 5 5 5 5 5 5 5 5 5 5 5 5 5 5 5 5 5 5 5 5 6 6 6 7 7 8 8
7 7 7 7 8 8 8 8 9 9 9 10 10 10 11 11 11 12 12 12 12 12 12 13 13 13 13 13 13 12 12 12 11 11 10 10 9 9 9 9 9 9 9 9 10 10 10 10 10 10 10 10 10 10 9 9 9 8 8 8 7 7 7 6 6 6 6 5 5 5 5 5 5 5 5 5 5 5 5 5 5 4 4 4 4 4 4 4 4 4 4 4 4 4 4 4 5 5 5 5 6 6 7
8 8 8 8 8 9 9 9 10 10 10 10 10 11 11 11 11 11 12 12 12 11 11 11 11 11 11 11 11 10 10 10 9 9 9 9 9 9 9 9 9 10 10 10 10 10 10 10 10 10 10 9 9 9 8 8 8 7 7 7 7 6 6 6 6 5 5 5 5 5 5 5 5 5 5 5 4 4 4 4 4 4 4 4 4 4 4 4 4 4 4 4 4 4 4 4 4 5 5 5 5 6 6
8 9 9 9 9 10 10 10 10 10 11 11 11 11 11 11 11 11 11 11 11 10 10 10 10 10 10 9 9 9 8 8 8 8 8 8 9 9 9 10 10 10 10 10 10 10 10 10 10 9 9 9 8 8 8 8 7 7 7 7 6 6 6 6 5 5 5 5 5 5 5 5 5 4 4 4 4 4 4 4 4 4 4 4 4 4 4 4 4 4 4 4 4 4 5 5 5 5 5 5 6 6 7
9 9 9 10 10 10 10 11 11 11 11 11 11 11 11 11 11 11 11 10 10 10 10 9 9 8 8 8 8 8 8 8 8 8 8 8 9 9 10 10 10 10 10 10 10 10 10 9 9 9 9 9 8 8 8 7 7 7 7 6 6 6 6 6 5 5 5 5 5 5 5 5 4 4 4 4 4 4 4 4 4 4 4 4 4 4 4 4 5 5 5 5 5 5 5 5 6 6 6 7 7 8 8
10 10 10 10 10 11 11 11 11 11 12 12 11 11 11 11 11 11 10 10 10 9 9 9 8 8 7 7 7 7 7 7 8 8 8 9 9 10 10 10 10 10 10 10 10 10 9 9 9 9 9 8 8 8 7 7 7 7 6 6 6 6 6 6 5 5 5 5 5 5 5 5 4 4 4 4 4 5 5 5 5 5 5 5 5 5 5 5 6 6 6 6 7 7 7 7 8 8 9 9 10 10 11
10 11 11 11 11 11 11 12 12 12 12 12 12 12 11 11 11 11 10 10 9 9 9 8 8 8 7 7 7 7 7 7 8 8 8 9 9 9 10 10 10 9 9 9 9 9 9 8 8 8 8 8 7 7 7 7 7 6 6 6 6 6 5 5 5 5 5 5 5 5 5 5 5 5 5 5 5 5 6 6 6 6 6 6 7 7 7 7 8 8 9 9 9 10 10 11 11 12 12 13 14 14 15
11 11 11 12 12 12 12 12 12 12 12 12 12 12 11 11 11 10 10 10 9 9 8 8 8 7 7 7 7 7 7 7 7 8 8 8 8 9 9 9 9 8 8 8 8 8 7 7 7 7 7 6 6 6 6 6 6 6 5 5 5 5 5 5 5 5 5 5 5 5 5 5 5 6 6 6 7 7 7 8 8 8 9 9 9 10 10 10 11 12 12 13 14 14 15 16 16 17 18 18 19 19 19
12 12 12 12 12 12 12 13 13 13 12 12 12 12 11 11 11 11 10 10 9 9 9 8 8 7 7 7 7 7 7 7 7 7 7 7 7 7 7 7 7 7 7 6 6 6 6 6 6 5 5 5 5 5 5 5 5 5 5 5 5 5 5 5 5 5 5 6 6 6 6 6 6 7 7 8 8 9 10 10 11 11 12 13 13 14 14 15 16 17 17 18 19 19 20 21 21 22 22 23 23 23 23
12 12 13 13 13 13 13 13 13 13 13 13 12 12 12 12 11 11 10 10 10 9 9 8 8 8 7 7 7 7 7 7 7 7 7 7 7 6 6 6 6 6 5 5 5 5 5 5 5 5 5 5 5 5 5 5 5 5 6 6 6 7 7 7 7 7 7 7 8 8 8 8 9 9 9 10 11 12 13 14 15 16 16 17 18 19 19 20 21 21 22 23 23 24 24 25 25 25 25 25 25 25 25
13 13 13 13 13 13 13 13 13 13 13 13 13 13 12 12 12 11 11 10 10 9 9 8 8 8 8 7 7 7 7 7 7 7 7 7 6 6 6 6 6 5 5 5 5 5 5 5 5 5 5 6 6 6 7 7 7 8 8 9 9 10 10 11 11 11 11 12 12 12 12 12 12 13 13 14 14 15 17 18 19 20 21 22 23 24 24 25 26 26 26 26 26 26 26 26 26 26 26 26 26 26 26
13 13 14 14 14 14 14 14 14 14 14 14 13 13 13 12 12 12 11 11 10 10 10 9 9 9 9 8 8 8 8 8 7 7 7 7 7 7 7 7 7 7 7 7 7 7 7 7 8 8 9 9 10 10 11 11 12 12 13 13 14 15 15 16 16 16 17 18 18 18 18 18 18 18 18 19 19 20 21 22 23 24 25 26 27 28 28 29 29 29 29 29 28 28 28 28 28 28 27 27 27 27 26
14 14 14 14 15 15 15 15 15 15 14 14 14 14 14 13 13 13 12 12 11 11 10 10 9 9 9 8 8 8 8 8 8 8 8 8 9 9 10 10 10 11 11 11 12 12 13 13 13 13 14 14 15 15 15 16 16 17 17 17 18 18 19 19 20 21 22 23 23 24 24 24 24 24 24 24 24 25 25 26 27 27 28 29 30 30 31 31 31 31 31 30 30 30 30 29 29 29 29 29 28 28 28
15 15 15 15 15 15 15 15 15 15 15 15 15 15 14 14 14 14 13 13 12 12 11 11 10 9 9 9 8 8 9 10 10 11 11 12 13 14 15 16 16 17 17 17 17 17 18 17 17 17 17 17 17 17 17 18 18 18 18 18 19 20 20 21 21 22 24 25 26 27 27 28 28 29 29 29 29 29 29 29 29 29 30 30 30 31 31 31 31 31 31 31 31 31 31 30 30 30 30 30 30 29 29
15 15 16 16 16 16 16 16 16 16 16 16 15 15 15 15 14 14 14 13 13 12 11 11 11 10 10 10 10 10 11 13 14 15 16 18 19 19 20 20 20 20 20 19 18 17 17 16 16 15 15 15 14 14 14 14 15 15 15 16 17 18 18 19 20 21 23 24 25 26 27 28 29 30 30 30 30 30 30 30 30 30 30 29 29 29 29 29 30 30 30 30 30 30 30 30 30 30 30 30 30 29 29
16 16 16 16 16 17 17 17 17 17 16 16 16 15 15 15 14 14 14 13 13 12 12 12 12 12 12 13 14 15 16 18 19 21 22 22 23 23 22 21 20 19 18 17 16 15 14 13 12 12 12 11 11 11 11 11 12 13 13 14 15 15 16 17 18 19 20 21 22 23 24 25 26 27 27 28 28 28 28 28 28 27 27 27 26 26 26 26 26 26 26 27 27 27 27 27 27 27 27 27 27 27 27
16 16 16 17 17 17 17 17 17 17 16 16 16 15 15 15 14 14 14 13 13 13 14 14 15 16 17 18 19 21 22 24 25 25 25 24 24 23 22 20 19 18 17 16 16 16 16 16 15 14 15 15 15 16 16 17 17 18 18 18 19 19 19 19 19 19 20 20 21 21 22 22 23 23 24 24 24 25 25 25 25 24 24 24 23 23 23 23 23 23 23 23 23 23 24 24 24 24 24 24 24 24 24
17 17 17 17 17 17 17 17 17 16 16 16 16 15 15 15 15 14 14 15 15 16 17 18 19 20 22 24 25 26 27 27 27 26 25 24 22 21 20 19 19 18 18 18 18 19 20 21 21 21 22 23 23 24 25 25 26 26 27 27 27 27 27 26 26 26 26 26 25 25 25 24 24 24 23 23 23 23 23 23 23 23 22 22 22 21 21 21 21 21 21 21 21 21 21 21 21 22 22 22 22 22 22
18 18 17 17 17 17 17 17 17 17 16 16 16 16 16 16 16 16 17 17 18 19 21 22 23 25 26 27 28 29 28 28 27 26 24 22 21 20 20 20 20 21 21 22 23 24 25 26 27 27 28 28 29 30 31 32 32 33 34 34 34 35 35 35 35 35 35 34 34 33 32 32 31 30 29 28 27 27 26 26 26 25 25 24 24 24 23 23 23 23 23 22 22 22 22 22 22 22 22 21 21 21 21
20 19 18 18 18 17 17 17 17 17 17 17 17 17 17 18 18 19 19 20 22 23 24 25 27 28 29 29 29 29 28 27 26 24 23 22 22 22 22 22 23 24 25 26 27 28 29 30 31 31 32 32 32 33 33 35 36 37 38 38 39 39 40 40 40 40 40 40 39 39 38 37 37 36 35 34 33 33 33 32 31 31 31 31 30 30 29 29 29 28 28 28 28 27 27 26 26 25 25 24 24 23 23
22 21 20 19 19 18 18 18 18 18 18 18 18 19 19 19 20 21 22 23 24 26 27 28 29 30 30 30 29 29 27 26 25 24 23 23 23 24 25 26 26 27 28 29 30 31 32 33 33 34 34 34 34 34 34 35 36 38 39 41 42 42 43 43 43 43 43 43 42 42 41 40 39 38 38 37 36 35 35 35 35 35 34 35 35 35 35 35 35 35 34 34 34 34 33 32 32 31 30 29 28 27 26
Wind_Speed
11 11 11 12 12 12 12 12 12 12 13 13 13 13 13 14 14 14 14 15 15 15 16 16 16 17 17 17 18 18 18 19 19 19 19 20 20 20 20 20 20 20 21 21 21 21 22 22 22 22 22 22 22 22 23 23 23 23 23 23 24 24 24 24 24 24 25 25 25 25 25 25 25 25 25 25 25 26 26 26 26 26 26 26 26 26 26 26 26 26 26 27 27 27 27 27 27 26 26 26 26 26 26
11 11 12 12 12 12 13 13 13 13 13 14 14 14 14 15 15 15 15 16 16 16 17 17 17 18 18 18 19 19 19 20 20 20 20 21 21 21 21 21 21 21 22 22 22 22 22 22 23 23 23 23 23 23 23 23 23 24 24 24 24 24 24 25 25 25 25 25 26 26 26 26 26 26 26 26 26 26 27 27 27 27 27 27 27 27 27 27 27 27 27 27 28 28 28 28 27 27 27 27 27 27 27
12 12 12 13 13 13 13 14 14 14 15 15 15 15 15 16 16 16 17 17 17 18 18 18 18 19 19 19 20 20 20 21 21 21 21 22 22 22 22 22 22 22 22 23 23 23 23 23 23 24 24 24 24 24 24 24 24 24 24 25 25 25 25 25 25 26 26 26 26 26 26 27 27 27 27 27 27 27 27 28 28 28 28 28 28 28 28 28 28 28 28 28 28 28 28 28 28 28 28 28 28 28 28
13 13 13 13 14 14 14 15 15 15 16 16 16 16 17 17 17 17 18 18 18 19 19 19 19 20 20 20 20 21 21 21 22 22 22 22 22 23 23 23 23 23 23 23 24 24 24 24 24 24 24 24 25 25 25 25 25 25 25 25 25 25 26 26 26 26 26 26 27 27 27 27 27 27 28 28 28 28 28 28 28 28 28 28 28 29 29 29 29 29 29 29 29 29 29 29 29 29 29 29 29 29 29
14 14 14 14 15 15 15 15 16 16 16 17 17 17 17 18 18 18 18 19 19 19 20 20 20 20 20 21 21 21 21 22 22 22 22 23 23 23 23 23 23 24 24 24 24 24 25 25 25 25 25 25 25 25 26 26 26 26 26 26 26 26 26 26 27 27 27 27 27 27 27 27 28 28 28 28 28 28 28 28 28 29 29 29 29 29 29 29 29 29 29 29 29 29 29 29 29 29 29 29 29 29 29
15 15 15 15 16 16 16 16 16 17 17 17 17 18 18 18 18 19 19 19 19 20 20 20 20 21 21 21 21 22 22 22 22 23 23 23 23 23 24 24 24 24 24 24 25 25 25 25 25 26 26 26 26 26 26 26 26 26 26 27 27 27 27 27 27 27 27 27 27 28 28 28 28 28 28 28 28 28 28 29 29 29 29 29 29 29 29 29 29 29 29 29 29 29 29 30 30 29 29 29 29 29 29
16 16 16 16 17 17 17 17 17 17 18 18 18 18 18 19 19 19 19 20 20 20 20 21 21 21 21 22 22 22 22 22 23 23 23 23 23 24 24 24 24 24 25 25 25 25 25 26 26 26 26 26 26 27 27 27 27 27 27 27 27 27 27 27 28 28 28 28 28 28 28 28 28 28 28 29 29 29 29 29 29 29 29 29 29 29 29 29 29 29 29 29 29 29 30 30 30 30 30 30 29 29 29
17 17 17 18 18 18 18 18 18 18 18 19 19 19 19 19 19 20 20 20 20 21 21 21 21 22 22 22 22 22 23 23 23 23 23 24 24 24 24 24 25 25 25 25 25 25 26 26 26 26 27 27 27 27 27 27 27 27 28 28 28 28 28 28 28 28 28 28 28 28 28 29 29 29 29 29 29 29 29 29 29 29 29 29 29 29 29 29 29 29 29 29 29 29 29 29 30 30 30 30 30 30 29
18 18 19 19 19 19 19 19 19 19 20 20 20 20 20 20 20 20 21 21 21 21 22 22 22 22 22 23 23 23 23 23 24 24 24 24 24 25 25 25 25 25 25 25 26 26 26 26 26 27 27 27 27 27 27 28 28 28 28 28 28 28 28 28 28 28 29 29 29 29 29 29 29 29 29 29 29 29 29 29 29 29 29 29 29 29 29 29 29 29 29 29 29 29 29 29 30 30 30 30 30 30 30
19 20 20 20 20 20 20 20 21 21 21 21 21 21 21 21 21 21 21 22 22 22 22 23 23 23 23 23 24 24 24 24 24 24 25 25 25 25 25 26 26 26 26 26 26 26 26 27 27 27 27 27 28 28 28 28 28 28 28 28 29 29 29 29 29 29 29 29 29 29 29 29 29 29 29 29 30 30 30 30 30 30 30 30 30 30 30 29 30 30 30 30 30 30 30 30 30 30 30 30 30 30 30
21 21 21 21 21 21 21 22 22 22 22 22 22 22 22 23 23 23 23 23 23 23 23 24 24 24 24 24 25 25 25 25 25 25 25 26 26 26 26 26 26 27 27 27 27 27 27 27 27 27 28 28 28 28 28 28 29 29 29 29 29 29 29 29 29 29 29 29 29 29 29 30 30 30 30 30 30 30 30 30 30 30 30 30 30 30 30 30 30 30 30 30 30 30 30 30 30 30 30 30 30 30 30
22 22 22 22 22 22 23 23 23 23 23 24 24 24 24 24 24 24 24 24 24 24 25 25 25 25 25 25 26 26 26 26 26 26 27 27 27 27 27 27 27 27 27 28 28 28 28 28 28 28 28 28 28 29 29 29 29 29 29 29 30 30 30 30 30 30 30 30 30 30 30 30 30 30 30 30 30 30 30 30 30 30 30 30 30 30 30 30 30 30 30 30 30 30 30 30 30 30 30 30 31 31 31
23 23 23 23 24 24 24 24 24 24 25 25 25 25 25 25 25 26 26 26 26 26 26 26 26 26 27 27 27 27 27 27 28 28 28 28 28 28 28 28 28 28 28 29 29 29 29 29 29 29 29 29 29 29 29 29 29 30 30 30 30 30 30 30 30 30 30 30 30 30 30 30 30 30 30 30 30 30 30 30 30 30 30 30 30 30 30 30 30 30 30 30 30 30 30 30 30 30 31 31 31 31 31
24 24 25 25 25 25 25 25 25 26 26 26 26 26 27 27 27 27 27 27 27 27 28 28 28 28 28 28 29 29 29 29 29 29 29 29 29 29 30 30 30 30 30 30 30 30 30 30 30 30 30 30 30 30 30 30 30 30 30 30 30 31 31 31 31 31 31 31 31 31 31 31 31 31 31 31 31 31 31 31 31 31 31 30 30 30 30 30 30 30 30 30 30 31 31 31 31 31 31 31 31 31 31
26 26 26 26 26 26 26 26 27 27 27 27 28 28 28 28 28 28 29 29 29 29 29 29 29 30 30 30 30 30 30 30 30 31 31 31 31 31 31 31 31 31 31 31 31 31 31 31 31 31 31 31 31 31 31 31 31 31 31 31 31 31 31 31 32 32 32 32 32 32 32 32 32 32 32 32 31 31 31 31 31 31 31 31 31 31 31 31 31 31 31 31 31 31 31 31 31 31 31 31 32 32 32
27 27 27 27 27 27 27 28 28 28 28 28 29 29 29 29 30 30 30 30 30 30 31 31 31 31 31 31 31 32 32 32 32 32 32 32 32 32 32 33 33 33 33 33 33 33 33 33 32 32 32 32 32 32 32 32 32 32 32 32 32 32 32 32 32 32 33 33 33 33 33 33 33 33 32 32 32 32 32 32 32 32 32 32 32 32 32 32 32 31 31 31 31 32 32 32 32 32 32 32 32 32 32
28 28 28 28 28 28 28 29 29 29 29 29 30 30 30 30 31 31 31 31 31 32 32 32 32 32 32 33 33 33 33 33 33 34 34 34 34 34 34 34 34 34 34 34 34 34 34 34 34 34 34 34 34 34 34 34 34 34 34 34 34 34 34 34 34 34 34 34 34 34 34 34 34 34 34 33 33 33 33 33 33 33 33 33 33 33 33 33 33 32 32 32 32 32 32 33 33 33 33 33 33 33 33
28 28 28 28 28 29 29 29 29 29 30 30 30 31 31 31 31 32 32 32 32 32 33 33 33 33 33 34 34 34 34 34 34 35 35 35 35 35 36 36 36 36 36 36 36 36 36 36 36 36 36 36 36 36 35 35 35 35 35 35 35 35 35 35 35 35 35 35 35 35 35 35 35 35 35 35 35 35 35 34 34 34 34 34 34 34 34 34 34 34 34 34 34 34 34 34 34 34 34 34 34 34 34
27 27 28 28 28 28 29 29 29 29 30 30 30 30 31 31 31 32 32 32 33 33 33 33 33 34 34 34 34 35 35 35 35 35 36 36 36 36 37 37 37 37 37 37 37 37 37 37 37 37 37 37 37 37 37 37 37 37 37 37 37 37 37 37 37 37 37 37 37 37 37 37 37 37 36 36 36 36 36 36 36 36 36 36 35 35 35 35 35 35 35 35 35 35 35 35 35 35 35 35 35 35 35
26 27 27 27 27 28 28 28 29 29 29 29 30 30 30 31 31 31 32 32 32 33 33 33 33 34 34 34 34 35 35 35 36 36 36 36 37 37 37 37 38 38 38 38 38 38 38 38 39 39 39 39 38 38 38 38 38 38 38 38 38 38 38 38 38 38 38 38 38 38 38 38 38 38 38 38 38 38 38 38 37 37 37 37 37 37 37 37 37 37 37 37 37 37 37 37 37 37 37 37 37 37 37
26 26 27 27 27 27 28 28 28 29 29 29 29 30 30 30 31 31 31 31 32 32 32 32 33 33 33 34 34 34 35 35 36 36 36 36 37 37 37 38 38 38 38 39 39 39 39 39 39 39 39 39 40 40 40 40 40 40 40 40 40 40 40 40 40 40 40 40 40 40 40 40 40 40 40 40 40 40 39 39 39 39 39 39 39 39 38 38 38 38 38 38 38 38 38 38 38 38 38 38 38 38 38
26 26 27 27 27 28 28 28 28 29 29 29 29 30 30 30 30 31 31 31 31 32 32 32 32 33 33 33 34 34 34 35 35 35 36 36 37 37 37 37 38 38 38 39 39 39 39 40 40 40 40 40 40 40 40 40 40 41 41 41 41 41 41 41 41 41 41 41 41 41 41 41 41 41 41 41 41 41 41 41 41 41 41 41 40 40 40 40 40 40 40 40 40 40 40 40 40 40 40 40 40 40 40
26 26 27 27 27 28 28 28 29 29 29 29 30 30 30 30 31 31 31 31 31 32 32 32 32 33 33 33 33 34 34 34 35 35 35 36 36 36 37 37 37 38 38 38 39 39 39 39 40 40 40 41 41 41 41 41 41 41 41 41 41 41 41 41 42 42 42 42 42 42 42 42 42 42 42 42 42 42 42 42 42 42 42 42 42 42 42 42 42 42 42 42 42 42 42 42 42 42 42 42 42 42 42
26 26 26 27 27 28 28 28 28 29 29 29 30 30 30 30 31 31 31 31 32 32 32 32 32 33 33 33 33 34 34 34 34 35 35 35 36 36 36 36 37 37 37 38 38 38 39 39 39 40 40 40 41 41 41 41 41 42 42 42 42 42 42 42 42 42 42 42 43 43 43 43 43 43 43 43 43 43 43 43 43 43 43 43 43 43 43 43 43 43 43 43 43 43 43 43 43 43 43 43 43 43 43
25 26 26 27 27 28 28 28 28 29 29 29 30 30 30 30 31 31 31 31 32 32 32 32 33 33 33 33 34 34 34 34 35 35 35 35 35 36 36 36 36 36 37 37 37 38 38 38 39 39 40 40 40 41 41 41 41 41 42 42 42 42 42 43 43 43 43 43 43 43 43 43 43 43 43 43 44 44 44 44 44 44 44 44 44 44 44 44 44 44 45 45 45 45 45 45 45 45 45 45 45 45 45
25 26 26 27 27 28 28 28 29 29 29 29 30 30 30 31 31 31 31 31 32 32 32 32 32 33 33 33 34 34 34 34 35 35 35 35 35 36 36 36 36 36 36 37 37 37 37 38 38 38 39 39 40 40 40 40 41 41 41 41 42 42 42 42 43 43 43 43 44 44 44 44 44 44 44 44 44 44 44 45 45 45 45 45 45 45 45 45 45 46 46 46 46 46 46 46 46 46 46 46 46 46 46
26 26 27 27 28 28 28 29 29 29 30 30 30 31 31 31 31 31 31 32 32 32 32 32 33 33 33 33 34 34 34 34 34 35 35 35 35 35 36 36 36 36 36 36 37 37 37 37 38 38 38 38 39 39 39 40 40 40 40 40 41 41 41 42 42 43 43 43 43 44 44 44 44 44 44 44 45 45 45 45 45 45 46 46 46 46 46 46 46 46 46 47 47 47 47 47 47 47 47 47 48 48 48
26 27 27 28 28 28 29 29 29 30 30 30 31 31 31 31 32 32 32 32 32 32 32 33 33 33 33 33 34 34 34 34 34 34 34 35 35 35 35 35 36 36 36 36 36 37 37 37 37 38 38 38 38 38 39 39 39 39 39 40 40 40 41 41 41 42 42 42 43 43 43 44 44 44 44 44 45 45 45 45 45 46 46 46 46 46 47 47 47 47 47 47 48 48 48 48 48 48 48 48 49 49 49
27 27 28 28 28 29 29 29 30 30 30 31 31 31 32 32 32 32 32 32 32 33 33 33 33 34 34 34 34 34 34 34 34 34 34 35 35 35 35 35 35 36 36 36 36 37 37 37 37 38 38 38 38 38 38 38 39 39 39 39 39 40 40 40 41 41 41 42 42 42 43 43 43 43 44 44 44 44 45 45 45 46 46 46 46 47 47 47 47 48 48 48 48 48 48 48 49 49 49 49 49 49 50
28 28 28 28 29 29 29 30 30 31 31 31 32 32 32 32 32 32 33 33 33 33 33 33 34 34 34 34 34 35 35 35 35 35 35 35 35 35 35 35 36 36 36 36 37 37 37 37 38 38 38 38 38 38 38 39 39 39 39 39 39 39 40 40 40 40 41 41 41 41 42 42 42 42 43 43 43 43 44 44 44 45 45 45 46 46 46 47 47 47 47 48 48 48 48 48 49 49 49 49 50 50 50
29 29 29 29 29 30 30 30 31 31 31 32 32 32 32 33 33 33 33 33 33 33 34 34 34 34 34 34 35 35 35 35 35 36 36 36 36 36 36 36 36 36 36 37 37 37 37 38 38 38 38 38 38 39 39 39 39 39 39 39 39 39 39 40 40 40 40 40 41 41 41 41 42 42 42 42 42 43 43 43 43 44 44 44 44 45 45 45 46 46 46 47 47 47 48 48 48 48 49 49 49 50 50
29 30 30 30 30 30 31 31 31 32 32 32 33 33 33 33 33 34 34 34 34 34 34 34 34 34 35 35 35 35 35 35 36 36 36 36 36 36 36 37 37 37 37 37 37 37 38 38 38 38 38 39 39 39 39 39 39 39 39 40 40 40 40 40 40 40 40 40 40 41 41 41 41 41 42 42 42 42 42 42 43 43 43 44 44 44 44 45 45 45 46 46 46 47 47 47 47 48 48 48 49 49 49
30 30 31 31 31 31 31 32 32 32 33 33 33 34 34 34 34 34 34 34 35 35 35 35 35 35 35 35 36 36 36 36 36 37 37 37 37 37 37 37 37 38 38 38 38 39 39 39 39 39 39 39 40 40 40 40 40 40 40 40 40 40 40 40 40 40 41 41 41 41 41 41 41 41 41 42 42 42 42 42 42 43 43 43 43 44 44 44 45 45 45 46 46 46 46 47 47 47 48 48 48 49 49
31 31 31 31 32 32 32 32 33 33 33 33 34 34 34 34 35 35 35 35 35 35 35 36 36 36 36 36 36 37 37 37 37 37 37 38 38 38 38 38 38 38 39 39 39 39 40 40 40 40 40 40 41 41 41 41 41 41 41 41 41 41 41 41 41 41 41 41 41 41 41 41 41 41 41 41 41 41 42 42 42 42 42 43 43 43 44 44 44 44 45 45 45 46 46 46 46 47 47 47 48 48 49
31 31 32 32 32 32 32 33 33 33 33 33 34 34 34 34 35 35 35 35 35 36 36 36 36 36 37 37 37 38 38 38 38 38 38 38 38 39 39 39 39 39 39 39 39 40 40 40 40 40 40 40 41 41 41 41 41 41 40 40 40 40 40 40 40 40 40 40 40 40 40 40 40 40 40 40 40 41 41 41 41 41 42 42 42 42 43 43 43 44 44 44 45 45 45 46 46 46 47 47 48 48 48
31 31 32 32 32 32 32 32 33 33 33 33 33 34 34 34 34 34 35 35 35 35 36 36 36 37 37 37 38 38 38 38 38 38 39 39 39 39 39 39 39 39 39 39 39 39 39 39 39 39 39 39 39 39 39 39 39 39 39 39 38 38 38 38 38 38 38 38 38 38 38 38 39 39 39 39 40 40 40 40 41 41 41 42 42 42 42 43 43 43 43 44 44 44 45 45 46 46 46 47 47 48 48
31 31 31 32 32 32 32 32 32 32 32 32 32 33 33 33 33 33 34 34 34 35 35 35 36 36 37 37 37 38 38 38 38 38 38 38 38 38 38 38 38 38 38 38 37 37 37 37 37 37 37 37 37 37 37 37 37 37 37 37 37 37 37 37 37 37 37 38 38 38 38 38 39 39 39 39 40 40 40 41 41 41 42 42 42 43 43 43 43 44 44 44 44 45 45 45 46 46 46 47 47 48 48
30 31 31 31 31 31 31 31 31 31 31 31 31 31 31 31 32 32 32 33 33 33 34 34 35 35 36 36 36 36 37 37 37 37 37 37 37 37 37 37 37 37 36 36 36 35 35 35 35 35 35 35 35 35 35 35 36 36 36 36 36 36 37 37 37 38 38 38 39 39 39 39 39 40 40 40 41 41 41 42 42 42 43 43 43 44 44 44 44 45 45 45 45 46 46 46 46 47 47 47 48 48 49
29 29 29 30 30 30 30 29 29 29 29 29 29 29 29 29 30 30 30 31 31 32 32 33 33 34 34 34 35 35 35 35 35 36 36 36 36 36 36 36 36 35 35 34 34 34 34 34 34 34 34 34 34 35 35 35 35 36 36 36 37 37 37 38 38 39 39 39 40 40 41 41 41 41 41 42 42 42 43 43 43 44 44 44 45 45 45 46 46 46 46 47 47 47 47 48 48 48 48 49 49 49 50
28 28 28 28 28 28 28 28 28 28 27 27 27 27 28 28 28 28 29 29 30 30 31 31 32 32 33 33 33 34 34 34 34 34 34 35 35 35 35 35 35 34 34 34 33 33 33 33 33 34 34 34 35 35 35 36 36 37 37 37 38 38 38 39 39 40 40 41 41 42 42 43 43 43 43 44 44 44 45 45 45 45 46 46 46 47 47 47 48 48 48 48 49 49 49 49 49 50 50 50 50 50 51
26 26 26 26 26 26 26 26 26 26 26 26 26 26 26 27 27 27 28 28 29 29 30 30 31 31 32 32 33 33 33 33 33 33 33 34 34 34 34 34 34 34 34 34 34 34 34 34 34 35 35 35 36 36 37 37 38 38 38 39 39 40 40 40 41 41 42 42 43 43 44 45 45 45 46 46 46 47 47 47 48 48 48 48 49 49 49 50 50 50 50 50 51 51 51 51 51 52 52 52 52 52 52
25 25 25 25 25 25 25 25 25 25 25 25 25 25 25 26 26 26 27 27 28 28 29 29 30 30 31 32 32 32 33 33 33 33 33 33 33 34 34 34 34 34 34 34 35 35 35 35 36 36 36 37 37 38 38 39 39 40 40 41 41 42 42 42 43 43 44 44 45 45 46 47 47 47 48 48 49 49 49 50 50 50 51 51 51 52 52 52 52 52 53 53 53 53 53 53 54 54 54 54 54 54 54
24 24 24 24 24 24 24 24 24 24 24 25 25 25 25 25 26 26 27 27 28 28 29 29 30 30 31 31 32 32 32 32 33 33 33 33 33 34 34 34 35 35 35 35 36 36 36 37 37 38 38 38 39 39 40 40 41 41 42 42 43 44 44 45 45 46 46 46 47 47 48 49 49 50 50 50 51 51 52 52 52 53 53 53 53 54 54 54 54 55 55 55 55 55 55 55 56 56 56 56 56 56 56
23 23 23 23 24 24 24 24 24 24 25 25 25 25 25 26 26 26 27 27 28 28 29 29 30 30 30 31 31 32 32 32 33 33 33 34 34 34 35 35 35 36 36 37 37 38 38 39 39 39 40 40 40 41 42 42 43 43 44 45 45 46 46 47 47 48 48 49 49 50 50 51 51 52 52 52 53 53 54 54 54 54 55 55 55 56 56 56 56 56 57 57 57 57 57 57 57 57 57 57 57 57 57
24 24 24 24 24 24 24 25 25 25 25 25 26 26 26 26 27 27 27 28 28 29 29 30 30 30 31 31 32 32 32 33 33 34 34 35 35 35 36 36 37 37 38 38 39 39 40 40 41 41 41 42 43 43 44 44 45 46 46 47 48 48 49 49 50 50 51 51 51 52 52 53 53 53 54 54 55 55 55 56 56 56 56 57 57 57 57 57 58 58 58 58 58 58 58 58 58 59 59 59 59 59 59
24 24 24 24 25 25 25 25 26 26 26 26 27 27 27 27 28 28 28 28 29 29 30 30 31 31 31 32 32 33 33 33 34 34 35 35 36 36 37 38 38 39 39 40 41 41 42 42 43 43 44 44 45 45 46 47 47 48 49 49 50 51 51 52 52 53 53 53 54 54 54 55 55 55 55 56 56 56 57 57 57 57 57 58 58 58 58 58 58 58 59 59 59 59 59 59 59 59 59 60 60 60 60
25 25 25 25 26 26 26 27 27 27 27 28 28 28 28 28 29 29 29 29 30 30 30 31 31 32 32 33 33 34 34 34 35 35 36 36 37 38 38 39 40 40 41 42 42 43 44 44 45 45 46 47 47 48 48 49 49 50 51 51 52 53 53 54 54 55 55 55 56 56 56 56 56 57 57 57 57 57 57 58 58 58 58 58 58 58 58 59 59 59 59 59 59 59 59 60 60 60 60 60 60 60 60
26 26 26 27 27 27 27 28 28 28 29 29 29 29 29 30 30 30 30 30 31 31 31 32 32 33 34 34 35 35 36 36 36 37 37 38 38 39 40 41 41 42 43 43 44 45 46 46 47 47 48 49 49 50 51 51 52 52 53 53 54 55 55 56 56 57 57 57 57 58 58 58 58 58 58 58 58 58 58 58 58 58 58 59 59 59 59 59 59 59 59 59 59 59 60 60 60 60 60 60 60 60 60
27 27 27 28 28 28 28 29 29 29 30 30 30 30 31 31 31 31 32 32 32 32 33 33 34 34 35 36 36 37 38 38 38 39 39 40 40 41 41 42 43 44 44 45 46 47 47 48 49 49 50 50 51 52 52 53 53 54 54 55 55 56 57 57 58 58 58 59 59 59 59 59 59 59 59 59 59 59 58 58 58 58 59 59 59 59 59 59 59 59 59 59 59 59 60 60 60 60 60 60 60 60 60
28 28 28 28 29 29 29 29 30 30 31 31 31 32 32 32 32 33 33 33 33 34 34 35 35 36 36 37 38 39 40 40 41 41 41 42 42 42 43 43 44 45 46 46 47 48 49 49 50 50 51 51 52 53 54 54 54 55 55 56 56 57 57 58 58 59 59 60 60 60 60 60 60 60 60 60 59 59 59 59 59 59 59 59 59 59 59 59 59 59 60 60 60 60 60 60 60 60 60 60 60 60 61
29 29 29 29 29 30 30 30 31 31 31 32 32 33 33 33 34 34 34 35 35 35 36 36 37 37 38 39 40 40 41 42 42 43 43 43 44 44 44 44 45 45 46 47 48 49 49 50 50 51 51 52 53 53 54 54 55 55 56 56 56 57 57 58 58 59 59 59 60 60 60 61 61 61 60 60 60 60 59 59 59 59 59 59 59 59 59 59 59 60 60 60 60 60 60 60 60 60 60 61 61 61 61
29 30 30 30 30 30 31 31 31 32 32 33 33 34 34 34 35 35 35 36 36 37 37 38 38 39 39 40 41 42 43 43 44 44 45 45 45 46 46 46 46 46 46 47 48 49 49 50 51 51 52 52 53 53 54 54 55 55 55 56 56 56 56 57 57 57 58 58 58 59 59 60 60 60 60 60 60 60 60 60 59 59 59 59 59 59 59 59 59 60 60 60 60 61 61 61 61 61 61 61 61 62 62
30 31 31 31 31 31 31 32 32 33 33 34 34 34 35 35 36 36 37 37 37 38 38 39 39 40 40 41 42 43 44 44 45 46 46 46 47 47 48 48 48 48 48 48 48 48 49 50 51 51 52 52 53 53 54 54 54 55 55 55 55 55 56 56 56 56 56 56 57 57 58 58 59 60 60 60 60 61 60 60 60 60 60 60 60 60 60 60 60 60 60 61 61 61 61 62 62 62 62 62 62 63 63
32 32 32 32 32 32 32 33 33 33 34 34 35 36 36 36 37 37 38 38 39 39 39 40 40 41 41 42 43 43 44 45 46 47 47 48 48 49 49 50 50 51 51 51 50 50 50 50 51 51 52 52 53 53 53 53 54 54 54 55 55 55 55 55 55 56 56 56 56 56 57 58 58 59 60 60 61 61 61 62 62 62 62 61 61 61 61 61 61 61 61 61 62 62 62 63 63 63 63 64 64 64 64
33 33 33 33 33 33 33 34 34 34 35 35 36 36 37 37 38 38 39 39 40 40 40 41 41 42 42 43 43 44 45 46 47 48 49 50 50 51 51 52 52 52 52 52 52 52 52 52 51 51 51 51 52 52 52 53 53 53 54 54 54 54 55 55 55 55 55 56 56 56 57 57 58 59 60 60 61 62 62 63 63 63 63 63 63 63 63 63 63 63 63 63 63 63 64 64 64 65 65 65 65 65 65
34 34 34 34 34 34 34 35 35 35 36 36 37 37 38 38 39 39 40 40 41 41 41 42 42 43 43 44 44 45 46 47 48 49 50 51 52 52 53 53 53 53 53 53 53 52 53 52 52 51 50 50 51 51 52 52 52 53 53 53 54 54 54 55 55 55 56 56 57 57 58 58 59 59 60 61 61 62 63 64 64 65 65 65 65 65 65 65 65 65 65 65 65 65 65 66 66 66 66 67 67 67 67
35 35 35 35 35 35 36 36 36 36 37 37 38 38 39 39 40 40 41 41 41 42 42 43 43 44 44 45 46 46 47 48 49 50 51 52 52 53 53 54 54 54 54 54 54 54 53 53 53 52 51 50 50 51 52 52 52 52 53 53 54 54 54 55 55 56 56 57 57 58 59 59 60 60 61 61 62 63 63 64 65 65 66 66 67 67 67 67 67 67 67 67 67 67 67 67 67 68 68 68 68 68 69
36 36 36 36 36 36 37 37 37 37 38 38 39 39 40 40 41 41 42 42 43 43 44 44 45 45 46 46 47 48 48 49 50 51 51 52 53 53 54 54 55 55 55 56 56 56 56 55 55 55 54 52 51 51 52 53 53 53 54 54 55 55 56 56 56 57 57 58 58 59 59 60 60 61 61 62 62 63 63 64 65 65 66 67 67 67 68 68 68 68 68 68 68 68 68 68 68 69 69 69 69 70 70
37 37 37 38 38 38 38 38 38 39 39 39 40 40 41 41 42 42 43 43 44 44 45 45 46 47 48 48 49 49 50 50 51 51 52 52 53 53 54 55 55 56 56 57 57 58 58 58 58 58 58 56 54 52 52 54 55 55 55 56 56 57 57 58 58 58 59 59 59 60 60 60 61 61 62 62 62 63 63 64 64 65 66 66 67 67 68 68 69 69 69 69 69 69 69 69 69 69 69 70 70 70 70
39 39 39 39 39 39 39 39 39 40 40 41 41 41 42 42 43 43 44 44 45 45 46 47 48 48 49 50 50 50 51 51 52 52 52 53 53 54 54 55 55 56 57 57 58 59 59 60 60 61 61 60 59 57 55 55 56 57 58 58 58 58 59 59 59 59 59 60 60 60 60 60 61 61 61 62 62 63 63 63 64 64 65 66 67 67 68 69 69 70 70 70 70 70 70 70 70 70 70 70 70 71 71
40 40 40 40 40 40 40 40 41 41 41 42 42 42 43 43 44 44 45 45 46 47 48 48 49 50 51 51 52 52 52 53 53 53 54 54 54 55 55 55 56 57 57 58 59 59 60 61 62 62 63 63 63 61 60 58 58 59 59 60 60 60 59 59 60 60 60 60 60 60 60 60 61 61 61 62 62 62 63 63 63 64 64 65 66 66 67 68 69 70 70 71 71 71 72 71 71 71 71 71 71 71 71
Wind_Direction
280 281 280 281 281 282 282 282 282 282 282 282 282 282 282 282 282 282 282 282 282 282 282 281 281 281 281 281 281 281 281 280 280 280 280 280 279 279 278 278 278 277 276 276 276 275 275 275 275 274 274 274 274 274 273 273 273 273 273 273 273 272 272 272 272 272 272 272 272 271 271 271 270 270 270 270 270 270 270 271 271 271 271 271 272 272 272 273 273 273 273 274 274 274 274 275 275 275 275 275 275 275 276
283 282 283 283 283 283 284 283 284 284 284 283 284 284 284 284 284 284 284 284 284 284 283 283 283 283 283 283 283 283 282 282 282 282 282 281 281 281 281 280 280 280 279 279 279 278 278 278 278 277 277 276 276 276 276 275 275 275 274 274 274 274 274 274 274 274 274 274 273 273 273 273 273 272 272 272 272 272 272 272 272 272 272 272 272 273 273 273 273 274 274 274 274 275 275 275 275 275 276 276 276 276 276
283 283 283 284 284 284 285 285 285 285 285 285 285 285 285 285 285 285 285 285 285 285 284 284 284 284 284 284 283 283 283 283 283 283 283 283 283 283 282 282 282 282 281 281 281 281 280 280 280 280 279 279 279 279 278 278 277 277 276 276 276 276 276 275 275 275 275 275 275 275 275 274 274 274 274 274 274 273 273 273 273 273 273 273 273 273 273 274 274 274 274 274 275 275 275 275 275 275 276 276 276 276 277
283 284 284 284 284 284 285 285 285 285 286 286 286 286 286 286 286 286 286 285 285 285 285 284 285 284 284 284 284 284 284 284 284 284 284 284 284 284 283 283 283 283 283 283 282 282 282 282 282 282 282 281 281 281 281 280 280 279 279 279 278 278 278 278 277 277 277 277 276 276 276 276 276 276 276 276 275 275 275 275 275 275 274 274 274 274 274 274 274 274 274 274 275 275 275 275 275 275 275 276 276 276 276
283 284 284 284 284 284 284 284 285 285 285 286 286 285 286 286 286 286 286 285 285 285 285 285 285 284 285 284 284 284 284 284 284 284 284 284 284 284 284 284 284 284 284 284 284 284 284 283 283 283 283 283 283 283 282 282 282 282 281 281 281 280 280 280 280 279 279 279 279 278 278 278 278 278 277 277 277 277 276 276 276 276 276 276 275 275 275 275 275 275 275 275 275 275 275 275 275 275 275 276 276 276 276
283 283 283 283 283 283 283 283 283 284 284 284 284 285 285 285 285 285 285 285 285 285 285 285 285 285 285 285 285 285 285 285 285 285 285 285 285 285 285 285 285 285 285 285 285 285 285 285 285 285 285 284 284 284 284 284 283 283 283 283 282 282 282 282 281 281 281 281 281 280 280 280 280 279 279 279 279 278 278 278 278 277 277 277 277 276 276 276 276 275 275 275 275 275 275 275 275 275 275 275 275 276 276
283 282 283 283 282 282 282 282 282 282 282 283 283 283 283 284 284 284 284 285 285 285 285 285 285 285 285 285 285 285 285 285 285 285 285 285 285 285 285 285 285 285 285 285 285 285 285 285 285 285 285 285 285 285 285 284 284 284 284 284 284 283 283 283 283 283 283 283 283 282 282 282 282 282 281 281 281 280 280 280 280 279 279 279 278 278 278 277 277 277 276 276 276 275 275 275 275 275 275 275 275 275 275
282 282 282 282 282 282 282 282 282 282 281 281 282 282 282 282 283 283 283 284 284 284 284 284 285 285 284 284 285 285 285 285 284 285 284 284 284 285 284 285 285 285 285 285 285 285 285 285 285 285 285 285 285 285 285 285 285 285 285 285 285 285 284 284 284 284 284 284 284 284 284 284 283 283 283 283 283 282 282 282 281 281 281 280 280 280 279 279 278 278 278 277 277 277 276 276 276 275 275 275 275 275 275
281 281 281 281 281 281 281 281 281 281 281 281 281 281 281 281 281 281 282 282 282 282 283 283 283 283 283 283 283 283 283 283 283 283 283 283 283 283 283 284 284 283 284 284 284 284 284 284 285 285 285 285 285 285 285 285 285 285 285 285 285 285 285 285 285 285 285 285 285 285 285 285 285 285 285 285 284 284 284 284 283 283 282 282 282 281 281 280 280 279 279 278 278 278 277 277 276 276 276 275 275 275 275
280 280 280 280 280 280 280 280 280 280 280 280 280 280 280 280 280 280 280 280 280 281 281 281 281 281 281 281 282 282 282 282 282 282 282 282 282 282 282 282 282 282 282 283 283 283 283 283 284 284 284 284 284 284 284 285 285 285 285 285 285 286 285 286 286 286 286 286 286 285 285 285 285 285 285 285 285 285 285 285 284 284 284 283 283 282 282 281 281 280 280 279 279 278 278 277 277 276 276 276 275 275 275
279 278 279 279 279 279 279 279 279 279 279 279 279 279 279 279 279 279 279 278 279 279 279 279 279 280 280 280 280 280 280 280 280 280 281 281 281 281 281 281 281 281 281 281 281 282 281 282 282 282 283 283 283 283 284 284 284 284 284 284 285 285 285 285 285 285 285 285 285 285 285 285 285 285 285 285 285 285 285 285 285 285 284 284 284 283 283 283 282 281 281 280 280 279 279 278 277 277 276 276 276 275 275
278 278 278 278 278 278 278 278 278 278 278 278 278 278 278 278 277 277 277 277 277 277 277 278 278 278 278 278 278 279 279 279 279 279 279 279 279 280 280 280 280 280 280 280 280 280 280 280 280 281 281 281 282 282 282 283 283 283 283 283 283 283 284 284 284 284 284 284 284 284 284 284 284 284 284 284 284 284 284 284 284 284 284 284 284 283 283 283 282 282 282 281 281 280 279 279 278 277 277 276 276 276 275
278 278 278 277 277 277 277 277 277 277 277 277 277 277 277 276 276 276 276 276 276 276 276 276 276 276 276 277 277 277 277 277 277 277 278 278 278 278 278 278 278 278 278 278 278 278 278 279 279 279 279 279 280 280 280 281 281 281 281 281 282 282 282 282 282 282 282 282 282 282 283 283 283 283 283 283 283 283 283 283 283 283 283 283 283 283 283 282 282 282 282 281 281 280 280 279 278 278 277 277 276 275 275
279 279 279 278 278 278 277 277 277 277 277 277 276 276 276 276 276 276 276 275 275 275 275 275 275 275 275 275 275 276 276 276 276 276 276 276 276 277 277 277 277 277 277 277 277 277 277 277 277 277 277 277 277 278 278 278 278 279 279 279 279 280 280 280 280 280 280 281 281 281 281 281 281 281 281 281 281 281 281 281 281 281 281 281 282 282 281 281 281 281 281 280 280 280 279 279 278 278 277 277 276 275 275
281 281 280 280 280 279 279 279 278 278 278 277 277 277 277 276 276 276 276 275 275 275 275 274 274 274 274 275 275 275 275 275 275 275 275 275 275 275 275 275 275 275 275 275 275 275 275 275 275 275 275 275 275 276 276 276 276 276 276 276 277 277 277 277 278 278 278 278 278 278 278 279 279 279 279 279 279 279 279 279 279 279 279 279 279 279 279 279 279 279 279 279 278 278 278 278 277 277 277 276 275 275 274
283 283 283 282 282 282 281 281 280 280 279 279 279 278 278 278 277 277 276 276 276 276 275 275 275 275 275 275 275 275 275 275 275 275 275 275 275 275 275 274 274 274 274 274 274 274 274 274 274 274 274 274 274 274 274 274 274 274 274 274 274 274 274 274 275 275 275 275 276 276 276 276 276 276 276 277 277 277 277 277 277 277 277 277 277 277 277 277 277 277 277 277 277 276 276 276 276 275 275 275 274 274 273
285 285 284 284 284 283 283 283 282 282 281 281 281 280 280 279 279 279 278 278 278 277 277 277 277 276 276 276 276 276 275 275 275 275 275 275 275 275 275 275 274 274 274 274 274 274 274 274 273 273 273 273 273 272 272 272 272 272 272 272 272 272 272 272 272 272 272 273 273 273 273 273 274 274 274 274 274 275 275 275 275 275 275 275 275 275 275 275 275 275 275 275 275 274 274 274 274 273 273 273 273 272 272
287 286 286 286 285 285 285 284 284 283 283 282 282 282 281 281 281 280 280 280 280 279 279 279 278 278 278 278 277 277 277 276 276 276 276 276 276 276 276 276 275 275 275 275 275 274 274 274 274 274 273 273 273 273 272 272 272 272 272 272 271 271 271 271 271 271 271 271 271 271 271 271 271 271 272 272 272 272 272 273 273 273 273 273 273 273 273 273 273 273 273 273 273 272 272 272 272 272 271 271 271 271 270
288 288 287 287 287 286 286 286 285 285 284 284 283 283 282 282 282 282 281 281 281 281 280 280 280 280 279 279 279 278 278 278 277 277 277 277 277 277 277 277 277 276 276 276 276 276 275 275 275 275 274 274 274 273 273 273 272 272 272 272 271 271 271 271 271 271 270 270 270 270 270 270 270 270 270 270 270 270 270 270 270 271 271 271 271 271 272 272 272 272 272 271 271 271 271 270 270 270 270 270 269 269 269
290 289 289 289 288 288 287 287 286 286 285 285 285 284 284 283 283 282 282 282 282 281 281 281 281 281 280 280 280 279 279 279 278 278 278 278 277 277 277 277 277 277 277 277 277 277 277 277 276 276 276 275 275 275 274 274 274 273 273 272 272 272 272 271 271 271 271 270 270 270 270 270 270 270 269 269 269 269 269 269 269 269 269 269 269 269 270 270 270 270 270 270 270 270 269 269 269 269 269 269 269 268 268
291 291 290 290 289 289 288 288 288 287 287 286 286 285 285 284 284 284 283 283 283 282 282 282 281 281 281 280 280 279 279 279 279 278 278 278 278 277 277 277 278 277 277 278 278 277 277 277 277 277 276 276 276 275 275 275 274 274 274 273 273 273 272 272 272 272 271 271 271 271 270 270 270 270 270 270 269 269 269 269 269 268 268 268 268 268 268 268 268 269 269 269 269 269 269 269 269 269 268 268 268 268 268
292 291 291 291 290 290 289 289 288 288 288 287 287 287 286 286 285 285 285 284 284 283 283 283 282 282 281 281 280 280 280 279 279 279 278 278 278 278 278 277 277 277 277 277 277 277 277 277 277 277 277 276 276 276 275 275 275 274 274 274 273 273 273 273 272 272 272 272 272 271 271 271 271 271 271 270 270 270 270 270 269 269 269 269 269 268 268 268 268 268 268 268 268 268 268 269 269 269 268 268 268 268 268
292 292 291 291 291 290 290 290 289 289 289 288 288 288 287 287 287 286 286 285 285 285 284 284 283 283 283 282 282 281 281 281 280 280 279 279 279 278 278 278 278 278 277 277 277 277 277 276 276 276 276 276 276 276 275 275 275 275 274 274 274 274 273 273 273 273 272 272 272 272 272 272 271 271 271 271 271 271 271 271 270 270 270 270 270 270 269 269 269 269 269 269 269 269 269 269 269 269 269 269 269 269 268
292 292 292 292 292 291 291 291 291 291 290 290 289 289 289 288 288 288 287 287 286 286 286 285 285 285 284 284 283 283 283 282 282 281 281 281 280 280 280 279 279 279 278 278 278 277 277 277 276 276 276 276 275 275 275 275 275 275 275 274 274 274 274 274 273 273 273 273 272 272 272 272 272 272 272 272 272 272 272 272 271 271 271 271 271 271 270 270 270 270 270 270 270 270 270 270 270 270 269 269 269 269 269
293 293 293 293 293 293 293 293 293 292 292 292 291 291 291 290 290 289 289 289 288 288 288 287 287 286 286 286 285 285 284 284 284 283 283 282 282 282 281 281 281 280 280 280 279 279 279 278 278 277 277 277 276 276 276 275 275 275 275 275 275 274 274 274 274 273 273 273 272 272 272 272 272 272 272 272 272 272 272 272 272 272 272 272 272 272 271 271 271 271 271 271 271 271 271 271 271 271 271 270 270 270 270
293 293 294 294 294 294 294 294 294 294 294 293 293 293 292 292 292 291 291 290 290 290 289 289 288 288 287 287 286 286 286 285 285 285 284 284 284 283 283 283 282 282 282 281 281 281 280 280 280 279 279 278 278 277 277 277 276 276 276 276 275 275 275 274 274 274 274 273 273 273 272 272 272 272 272 272 272 272 272 272 272 272 272 272 272 272 272 272 272 272 272 272 272 272 272 272 272 272 271 271 271 271 271
293 293 293 293 293 294 294 294 294 294 293 293 293 293 293 293 292 292 292 292 291 291 290 290 289 289 288 288 287 287 287 286 286 286 285 285 285 285 284 284 284 283 283 282 282 282 282 281 281 280 280 280 279 279 279 279 278 278 277 277 276 276 275 275 275 274 274 274 274 273 273 273 273 272 272 272 272 272 272 272 272 272 272 272 272 272 272 272 272 272 272 272 272 272 272 272 272 272 272 272 272 272 272
292 292 292 292 292 292 292 292 292 292 292 292 292 292 292 292 292 292 291 291 291 291 290 290 290 289 289 289 288 288 288 287 287 287 286 286 286 285 285 285 284 284 283 283 283 282 282 282 281 281 281 280 280 280 280 279 279 279 278 278 277 277 276 276 276 275 275 275 275 274 274 274 273 273 273 272 272 272 272 272 272 272 272 272 272 272 272 272 272 272 272 272 272 272 272 272 272 272 272 272 272 272 272
291 291 291 291 291 290 290 290 290 290 290 290 289 289 289 290 290 290 290 289 289 289 289 289 289 289 289 289 289 289 289 288 288 288 287 287 287 286 286 286 285 285 284 284 284 283 283 282 282 281 281 281 281 280 280 280 280 279 279 278 278 278 277 277 277 276 276 276 275 275 275 275 274 274 274 273 273 273 272 272 272 272 272 272 272 272 272 272 272 272 272 272 272 272 272 272 272 272 272 272 272 272 272
291 291 290 290 290 289 289 289 289 288 288 288 288 288 288 288 288 287 287 288 288 287 288 288 288 288 288 289 289 289 289 289 288 288 288 288 287 287 287 287 286 286 286 285 285 284 284 284 283 283 282 282 282 281 281 281 280 280 280 279 279 278 278 278 278 277 277 277 277 276 276 276 275 275 275 274 274 274 273 273 273 273 273 272 272 272 272 272 272 272 272 272 272 272 272 272 272 272 272 272 272 272 272
292 291 291 290 290 289 289 289 289 288 288 288 288 287 287 287 287 287 287 286 286 286 286 286 287 287 287 287 288 288 288 288 288 288 288 288 287 287 287 287 287 286 286 286 285 285 284 284 284 283 283 283 283 282 282 281 281 281 280 280 280 279 279 279 278 278 278 278 277 277 277 277 276 276 276 276 275 275 275 275 274 274 274 274 273 273 273 273 272 272 272 272 272 272 272 272 272 272 272 272 272 272 272
292 292 292 292 291 291 291 290 290 290 290 290 289 289 289 289 288 288 288 288 287 287 287 287 287 286 286 286 286 287 287 287 287 287 287 287 287 287 287 286 286 286 286 285 285 284 284 284 284 283 283 283 283 282 282 282 281 281 280 280 280 280 279 279 278 278 278 278 277 277 277 277 277 276 276 276 276 276 276 275 275 275 275 274 274 274 273 273 273 273 273 273 273 273 273 273 272 272 272 272 273 273 273
293 293 293 293 293 293 293 293 292 292 292 292 291 291 291 291 291 290 290 290 290 289 289 289 288 288 288 287 287 287 287 286 286 286 286 286 286 286 286 286 286 286 285 285 285 285 284 284 284 283 283 283 283 282 282 282 281 281 281 280 280 280 279 279 278 278 278 277 277 277 276 276 276 276 276 276 275 275 275 275 275 275 274 274 274 274 274 274 274 273 273 273 273 273 273 273 273 273 273 273 273 273 273
294 295 295 295 295 294 294 294 294 293 293 293 293 293 292 292 292 292 292 292 292 291 291 291 291 290 290 290 289 289 288 288 287 287 287 287 287 287 286 286 286 286 286 286 286 285 285 285 285 284 284 284 283 283 283 282 282 281 281 281 280 280 280 279 279 278 278 278 277 277 276 276 276 276 275 275 275 275 274 274 274 274 274 274 274 274 274 274 274 274 274 274 274 274 274 274 274 274 274 274 274 274 274
295 295 295 295 295 295 295 295 295 294 294 294 293 293 293 293 293 293 293 292 292 293 292 292 292 292 292 291 291 291 290 290 289 289 289 289 288 288 288 287 287 287 287 287 287 287 286 286 286 286 285 285 284 284 284 283 283 282 282 282 281 281 280 280 280 279 279 278 278 278 277 277 277 276 276 276 275 275 275 274 274 274 274 273 273 273 273 273 273 274 273 274 274 274 274 274 274 274 274 274 274 274 274
296 296 296 296 295 295 295 295 295 294 294 294 293 293 293 293 293 292 292 292 292 292 292 293 292 292 292 292 292 292 291 291 291 290 290 290 290 290 289 289 289 288 288 288 288 288 287 287 287 286 286 286 285 285 285 284 284 283 283 283 282 282 281 281 281 280 280 280 279 279 279 278 278 278 278 277 277 277 276 276 275 275 275 275 274 274 274 274 274 274 274 274 274 274 274 274 274 274 275 275 275 275 275
296 296 295 295 295 295 295 295 295 294 294 293 293 293 293 292 292 292 292 292 292 292 292 292 292 292 291 292 291 291 291 291 291 291 291 291 291 291 290 290 290 290 289 289 289 288 288 287 287 287 286 286 285 285 284 284 284 284 284 283 283 283 283 282 282 282 281 281 280 280 280 279 279 279 279 279 278 278 278 278 277 277 277 276 276 276 275 275 275 275 275 274 274 274 274 274 274 274 275 275 275 275 275
295 295 295 295 295 295 295 295 294 294 294 293 293 293 293 292 292 292 292 291 291 291 291 291 291 291 291 291 291 291 291 291 291 292 292 292 291 291 291 291 290 290 290 290 289 289 288 287 287 286 286 285 285 284 284 284 284 284 284 284 284 283 283 283 283 283 282 282 282 281 281 280 280 280 279 279 279 279 278 278 278 278 278 278 277 277 277 277 276 276 276 276 275 275 275 275 275 275 275 275 275 275 275
295 295 295 295 295 295 295 295 294 294 294 294 294 294 293 293 293 293 293 292 292 292 291 291 291 291 291 291 291 291 291 292 292 292 292 292 292 291 291 291 291 290 290 289 289 288 287 287 286 286 285 285 284 284 284 284 284 284 284 284 284 283 283 283 283 283 283 283 283 282 282 282 281 281 280 280 279 279 279 279 278 278 278 278 278 278 277 277 277 277 277 276 276 276 276 276 275 275 275 275 275 275 275
294 295 295 295 295 295 295 295 295 295 295 295 295 295 294 294 294 294 294 293 293 293 292 292 292 292 292 292 292 292 292 292 292 292 292 292 292 291 291 291 291 290 290 289 288 288 287 286 286 285 285 284 284 284 284 284 284 284 284 284 284 283 283 283 283 283 283 283 283 283 283 283 282 282 282 281 281 281 280 280 280 279 279 279 278 278 278 278 277 277 277 277 277 276 276 276 276 276 275 275 275 275 275
294 294 294 294 294 294 294 294 294 295 295 295 295 295 295 295 295 294 294 294 294 293 293 292 292 292 292 292 292 292 292 292 292 292 292 291 291 291 291 290 290 290 289 289 288 288 287 286 286 286 285 285 285 285 284 284 284 284 284 284 284 284 284 284 284 284 284 284 284 284 284 284 284 283 283 283 283 282 282 282 281 281 280 280 280 279 279 279 278 278 278 277 277 277 276 276 276 276 276 276 276 275 275
293 293 293 293 293 293 293 293 293 294 294 294 295 295 295 294 294 294 294 293 293 293 293 293 292 292 292 292 292 292 292 292 291 291 291 290 290 290 289 289 289 289 289 288 288 288 287 287 287 286 286 286 286 285 285 285 285 285 285 285 285 284 284 284 284 284 284 284 284 284 284 284 284 284 283 283 283 283 283 282 282 282 281 281 281 280 280 280 279 279 278 278 278 278 277 277 277 276 276 276 276 276 276
292 292 292 292 292 292 291 292 292 292 292 292 293 293 293 293 293 293 293 293 293 292 292 292 292 292 291 291 291 291 291 291 291 290 289 289 289 288 288 288 288 288 288 287 287 287 287 287 286 286 286 286 286 285 285 285 285 285 285 285 284 284 284 284 284 284 284 284 284 284 284 284 284 283 283 283 283 283 283 282 282 282 282 281 281 281 281 280 280 280 279 279 279 278 278 278 277 277 277 277 276 276 276
291 291 290 290 290 290 290 290 290 290 290 291 291 291 292 292 292 292 292 292 292 292 292 292 291 291 290 290 290 290 290 289 289 289 288 288 288 287 287 287 287 287 287 286 286 286 286 286 285 285 285 285 285 285 284 284 284 284 284 284 284 284 284 284 283 283 283 283 283 283 283 283 283 283 283 283 283 283 282 282 282 282 282 281 281 281 281 280 280 280 280 279 279 279 279 278 278 278 277 277 277 277 276
291 291 290 290 290 289 289 289 289 289 290 290 291 291 291 292 292 292 292 292 292 291 291 291 291 290 290 289 289 288 288 288 287 287 287 287 287 287 286 286 286 286 286 286 285 285 285 285 285 285 284 284 284 284 284 284 284 284 284 284 284 284 284 283 283 283 283 283 283 283 283 283 283 283 283 283 282 282 282 282 282 282 281 281 281 281 281 281 280 280 280 280 280 279 279 279 279 278 278 278 277 277 277
292 292 291 291 291 291 290 291 291 291 291 291 292 292 292 293 293 293 292 292 292 291 291 290 290 290 289 288 287 287 286 286 286 285 285 285 285 285 285 285 285 285 285 285 285 285 284 284 284 284 284 284 284 284 284 284 284 284 284 284 284 284 283 283 283 283 283 283 283 283 283 283 283 282 282 282 282 282 282 282 282 282 281 281 281 281 281 280 280 280 280 280 280 280 279 279 279 279 279 278 278 278 277
294 294 293 293 293 292 292 292 292 292 293 293 293 293 293 293 293 293 293 292 292 291 290 290 289 288 288 287 287 286 286 285 284 284 284 284 284 284 283 283 283 284 284 284 284 284 284 284 284 284 284 284 284 284 284 284 284 284 284 284 284 284 284 284 284 283 283 283 283 283 283 283 283 283 282 282 282 282 282 282 282 282 282 281 281 281 281 281 281 280 280 280 280 280 280 280 280 279 279 279 278 278 278
295 295 295 294 294 294 294 294 294 294 294 294 294 294 294 294 294 293 293 292 292 291 290 289 289 288 288 287 287 286 285 285 284 283 283 283 283 283 283 283 283 283 283 283 283 283 284 284 284 284 284 284 284 284 284 284 284 284 284 284 284 284 284 284 284 284 284 284 284 283 283 283 283 283 283 283 283 282 282 282 282 282 282 282 282 281 281 281 281 281 281 280 280 280 280 280 280 279 279 279 279 278 278
295 295 295 295 294 294 294 294 294 294 294 294 294 294 294 294 294 293 293 292 292 291 290 290 289 288 287 287 287 287 286 285 285 284 284 283 283 283 283 283 283 284 284 284 284 284 284 284 284 285 285 285 285 285 285 285 285 285 285 285 285 285 285 285 285 285 285 284 284 284 284 284 283 283 283 283 283 283 283 282 282 282 282 282 282 282 282 282 281 281 281 281 280 280 280 280 279 279 279 279 279 278 278
294 294 294 294 294 293 293 293 293 293 293 293 293 293 293 293 293 293 292 292 292 291 290 290 289 288 288 287 287 287 287 287 286 286 285 284 284 283 283 283 284 284 285 285 285 285 285 285 285 286 286 286 286 286 286 286 286 286 286 286 286 286 286 286 286 286 286 286 285 285 285 284 284 284 284 284 283 283 283 283 283 282 282 282 282 282 282 282 282 281 281 281 280 280 280 280 279 279 279 278 278 278 278
293 293 293 292 292 292 292 292 292 292 292 292 292 292 292 292 292 292 292 291 291 290 290 289 289 289 288 288 287 288 287 287 287 287 286 286 286 285 285 284 284 284 284 285 285 285 285 285 286 286 286 286 286 286 286 286 286 286 286 286 286 287 287 287 287 287 287 287 286 286 286 286 285 285 285 284 284 284 283 283 283 283 283 282 282 282 282 282 282 281 281 281 281 280 280 280 279 279 279 278 278 278 278
292 292 291 291 291 291 291 291 291 291 291 291 291 291 291 291 291 291 291 290 290 290 289 289 289 289 288 288 288 288 288 288 288 288 288 287 287 287 286 286 285 284 283 283 284 284 285 285 285 285 285 285 285 285 286 286 286 286 286 286 286 286 286 287 287 287 287 287 287 287 287 286 286 286 286 285 285 284 284 284 283 283 283 282 282 282 282 281 281 281 281 281 280 280 280 280 279 279 279 278 278 278 277
291 291 291 291 290 290 290 290 290 290 290 290 290 290 290 290 290 290 290 290 289 289 289 289 289 289 289 289 289 289 289 289 289 289 289 288 288 287 287 286 286 285 284 283 283 282 283 283 284 284 284 284 284 284 285 285 285 285 285 285 286 286 286 286 286 286 286 286 286 286 286 286 286 286 286 286 285 285 285 284 284 283 283 282 282 282 281 281 281 281 280 280 280 280 280 279 279 279 278 278 278 278 277
291 290 290 290 290 290 290 290 290 290 289 289 289 290 289 290 289 289 289 289 289 289 289 289 289 289 289 289 289 289 290 290 290 290 289 289 289 288 288 287 287 287 286 285 284 283 282 282 282 283 283 283 283 283 284 284 284 284 284 285 285 285 285 285 285 285 285 285 285 285 286 286 286 286 286 286 286 286 285 285 285 284 284 283 283 282 282 281 281 281 280 280 280 280 279 279 279 279 278 278 278 277 277
291 290 290 290 290 290 289 289 289 289 289 289 289 289 289 289 289 289 289 289 289 289 289 290 289 289 290 290 290 290 290 290 290 290 290 290 290 290 289 289 288 288 287 287 286 286 285 284 283 283 283 284 284 284 283 284 284 284 284 284 284 284 284 284 284 284 284 284 284 285 285 285 285 285 286 286 286 286 286 286 286 285 285 284 284 283 283 282 282 281 281 281 280 280 280 279 279 279 278 278 278 277 277
291 290 290 290 290 290 289 289 289 289 289 289 289 289 289 289 289 289 290 290 290 290 290 290 290 290 290 290 290 290 290 290 290 291 291 291 291 291 291 291 291 291 290 289 288 288 287 287 286 285 285 285 286 286 285 285 285 285 285 284 284 284 284 284 284 284 284 284 284 284 284 285 285 285 285 285 286 286 286 286 286 286 285 285 285 284 284 283 283 282 282 281 281 281 280 280 280 279 279 279 278 278 277
291 291 290 290 290 290 289 289 289 289 289 289 289 289 289 289 289 290 290 290 290 290 290 290 290 290 290 290 290 291 291 291 291 291 292 292 292 292 293 293 293 293 293 293 292 291 290 289 289 289 287 287 287 288 288 288 287 287 287 287 286 286 286 286 285 285 285 285 285 285 285 285 285 285 285 285 285 285 285 285 285 285 285 285 285 284 284 284 283 283 282 282 281 281 281 280 280 280 279 279 279 278 278
291 291 290 290 290 290 290 289 289 289 289 289 289 289 289 290 290 290 290 290 290 291 291 291 291 291 291 291 291 292 292 292 292 293 293 293 294 294 294 294 294 294 295 294 294 294 293 292 292 291 290 289 288 289 290 291 290 290 290 289 289 289 288 288 288 287 287 286 286 286 286 285 285 285 285 285 285 285 285 285 285 285 285 284 284 284 284 284 283 283 283 282 282 281 281 280 280 280 279 279 279 278 278
292 292 291 291 291 290 290 290 290 289 290 290 289 290 290 290 290 290 290 291 291 291 291 292 292 292 292 292 292 293 293 293 294 294 294 295 295 295 296 296 296 296 296 296 296 296 296 296 295 294 293 293 291 290 291 292 292 292 291 291 291 291 290 290 289 289 288 288 287 287 286 286 286 285 285 285 284 284 284 284 284 284 284 284 284 284 283 283 283 283 282 282 282 281 281 280 280 279 279 279 279 278 278
293 293 292 292 291 291 291 290 290 290 290 290 290 290 290 290 290 291 291 291 291 292 292 292 293 293 293 294 294 294 295 295 295 295 296 296 296 296 296 297 297 297 297 297 297 297 297 297 297 297 296 296 295 294 292 293 293 293 293 293 292 292 291 291 290 290 289 289 288 288 287 286 286 285 285 284 284 283 283 283 283 283 283 283 283 283 282 282 282 282 282 282 281 281 280 280 279 279 279 278 278 278 278
294 294 293 293 292 292 291 291 291 290 290 290 290 290 290 291 291 291 292 292 292 293 293 293 294 294 295 295 295 296 296 296 296 296 297 297 297 297 297 297 297 297 297 298 298 298 298 298 298 298 298 298 297 296 295 295 294 294 294 293 293 293 292 291 291 290 290 289 289 288 287 287 286 285 285 284 284 283 283 283 283 282 282 282 282 282 282 282 282 282 281 281 281 281 280 280 279 279 279 278 278 278 278